Tracking 17149 objects as of 22-May-2015
HD Live streaming from Space Station

THORAD AGENA D DEB

Track THORAD AGENA D DEB now!
10-day predictions
THORAD AGENA D DEB is classified as:


NORAD ID: 4171
Int'l Code: 1969-082AP
Perigee: 769.6 km
Apogee: 825.2 km
Inclination: 70.1 °
Period: 100.7 minutes
Semi major axis: 7168 km
RCS: 0.0461 m2 (small)
Launch date: September 30, 1969
Source: United States (US)

Note: This is SATELLITE DEBRIS
Your satellite tracking list
Your tracking list is empty





NASA's NSSDC Master Catalog

Two Line Element Set (TLE):
1 04171U 69082AP  15141.88875958  .00000754  00000-0  30878-3 0  9993
2 04171 070.0789 322.4655 0038828 004.2111 355.9332 14.30442679360482

Source of the keplerian elements: AFSPC

N2YO: 353